Location: Tenerife
(28.2947°N, 16.5650°W)
Time: 07:05:33
(UTC+01:00)

Envisat - Visible Passes

Search period start: 18 June 2018 00:00
Search period end: 28 June 2018 00:00
Orbit: 764 x 766 km, 98.2° (Epoch: 17 June)

Date Brightness Start Highest point End Pass type
(mag) Time Alt. Az. Time Alt. Az. Time Alt. Az.
18 Jun 5.4 22:32:00 10° SW 22:35:37 20° W 22:39:15 10° NW visible
19 Jun 3.9 21:53:53 10° S 21:58:46 50° W 22:03:41 10° NNW visible
21 Jun 5.0 22:20:15 10° SSW 22:24:24 26° W 22:28:35 10° NW visible
22 Jun 3.4 21:42:35 10° S 21:47:36 66° W 21:52:38 10° NNW visible
23 Jun 5.7 22:47:47 10° WSW 22:50:08 13° W 22:52:28 10° WNW visible
24 Jun 4.6 22:08:40 10° SSW 22:13:13 34° W 22:17:47 10° NW visible
25 Jun 3.1 21:31:23 10° SSE 21:36:27 87° WSW 21:41:32 10° NNW visible
26 Jun 5.5 22:35:34 10° SW 22:38:53 18° W 22:42:14 10° NW visible
27 Jun 4.1 21:57:13 10° S 22:02:02 44° W 22:06:52 10° NNW visible
